09-02-2022, 00:00:00,    243,    0.2,    7.3,   0.00,   0.00, 1020.2,   75.8, -999.0
09-02-2022, 00:00:10,    243,    0.2,    7.3,   0.00,   0.00, 1020.2,   75.7, -999.0
09-02-2022, 00:00:20,    244,    1.0,    7.4,   0.00,   0.00, 1020.2,   75.9, -999.0
09-02-2022, 00:00:30,    197,    1.3,    7.4,   0.00,   0.00, 1020.2,   75.9, -999.0
09-02-2022, 00:00:40,    244,    2.4,    7.3,   0.00,   0.00, 1020.3,   76.0, -999.0
09-02-2022, 00:00:50,    213,    2.1,    7.3,   0.00,   0.00, 1020.3,   76.0, -999.0
09-02-2022, 00:01:00,    210,    1.3,    7.4,   0.00,   0.00, 1020.3,   76.0, -999.0
09-02-2022, 00:01:09,    216,    0.3,    7.3,   0.00,   0.00, 1020.2,   75.9, -999.0
09-02-2022, 00:01:30,    235,    4.7,    7.3,   0.00,   0.00, 1020.3,   76.0, -999.0
09-02-2022, 00:01:39,    229,    3.6,    7.3,   0.00,   0.00, 1020.3,   76.0, -999.0
09-02-2022, 00:01:49,    225,    1.6,    7.3,   0.00,   0.00, 1020.2,   76.1, -999.0
09-02-2022, 00:01:59,    230,    0.2,    7.3,   0.00,   0.00, 1020.2,   76.0, -999.0
09-02-2022, 00:02:09,    252,    0.5,    7.2,   0.00,   0.00, 1020.2,   76.0, -999.0
09-02-2022, 00:02:19,    241,    1.6,    7.2,   0.00,   0.00, 1020.3,   76.1, -999.0
09-02-2022, 00:02:29,    215,    0.7,    7.3,   0.00,   0.00, 1020.3,   76.1, -999.0
09-02-2022, 00:02:39,    201,    0.6,    7.4,   0.00,   0.00, 1020.3,   76.3, -999.0
09-02-2022, 00:02:49,    218,    0.1,    7.3,   0.00,   0.00, 1020.2,   76.0, -999.0
09-02-2022, 00:02:59,    243,    0.3,    7.3,   0.00,   0.00, 1020.2,   76.1, -999.0
09-02-2022, 00:03:09,    253,    3.3,    7.3,   0.00,   0.00, 1020.3,   76.2, -999.0
09-02-2022, 00:03:19,    239,    2.2,    7.3,   0.00,   0.00, 1020.3,   76.2, -999.0
09-02-2022, 00:03:29,    209,    0.5,    7.3,   0.00,   0.00, 1020.2,   76.1, -999.0
09-02-2022, 00:03:39,    213,    1.0,    7.3,   0.00,   0.00, 1020.2,   76.2, -999.0
09-02-2022, 00:03:49,    219,    0.1,    7.2,   0.00,   0.00, 1020.1,   75.9, -999.0
09-02-2022, 00:03:59,    203,    0.6,    7.3,   0.00,   0.00, 1020.1,   76.1, -999.0
09-02-2022, 00:04:09,    189,    1.3,    7.4,   0.00,   0.00, 1020.2,   76.4, -999.0
09-02-2022, 00:04:18,    216,    0.4,    7.4,   0.00,   0.00, 1020.2,   76.2, -999.0
09-02-2022, 00:04:28,    218,    0.0,    7.3,   0.00,   0.00, 1020.1,   76.0, -999.0
09-02-2022, 00:04:39,    182,    0.6,    7.3,   0.00,   0.00, 1020.2,   76.2, -999.0
09-02-2022, 00:04:48,    213,    2.5,    7.3,   0.00,   0.00, 1020.2,   76.4, -999.0
09-02-2022, 00:04:58,    213,    0.0,    7.2,   0.00,   0.00, 1020.1,   75.9, -999.0
09-02-2022, 00:05:08,    206,    1.3,    7.2,   0.00,   0.00, 1020.2,   76.2, -999.0
09-02-2022, 00:05:18,    228,    1.6,    7.3,   0.00,   0.00, 1020.1,   76.2, -999.0
09-02-2022, 00:05:28,    224,    0.3,    7.3,   0.00,   0.00, 1020.1,   76.2, -999.0
09-02-2022, 00:05:38,    225,    0.3,    7.3,   0.00,   0.00, 1020.2,   76.3, -999.0
09-02-2022, 00:05:48,    199,    0.0,    7.2,   0.00,   0.00, 1020.1,   76.1, -999.0
09-02-2022, 00:05:58,    200,    0.0,    7.3,   0.00,   0.00, 1020.0,   75.9, -999.0
09-02-2022, 00:06:08,    200,    0.0,    7.2,   0.00,   0.00, 1020.0,   75.9, -999.0
09-02-2022, 00:06:18,    223,    1.5,    7.3,   0.00,   0.00, 1020.1,   76.2, -999.0
09-02-2022, 00:06:28,    236,    2.8,    7.4,   0.00,   0.00, 1020.2,   76.3, -999.0
09-02-2022, 00:06:38,    221,    2.4,    7.3,   0.00,   0.00, 1020.2,   76.3, -999.0
09-02-2022, 00:06:48,    220,    0.6,    7.3,   0.00,   0.00, 1020.2,   76.3, -999.0
09-02-2022, 00:06:58,    264,    0.2,    7.3,   0.00,   0.00, 1020.1,   76.2, -999.0
09-02-2022, 00:07:08,    220,    1.2,    7.3,   0.00,   0.00, 1020.2,   76.4, -999.0
09-02-2022, 00:07:18,    237,    0.8,    7.3,   0.00,   0.00, 1020.2,   76.3, -999.0
09-02-2022, 00:07:27,    224,    0.6,    7.3,   0.00,   0.00, 1020.2,   76.3, -999.0
09-02-2022, 00:07:37,    217,    2.3,    7.3,   0.00,   0.00, 1020.2,   76.4, -999.0
09-02-2022, 00:07:48,    237,    3.2,    7.3,   0.00,   0.00, 1020.2,   76.4, -999.0
09-02-2022, 00:07:57,    224,    2.2,    7.3,   0.00,   0.00, 1020.2,   76.4, -999.0
09-02-2022, 00:08:07,    237,    2.9,    7.3,   0.00,   0.00, 1020.2,   76.4, -999.0
09-02-2022, 00:08:18,    210,    2.2,    7.3,   0.00,   0.00, 1020.2,   76.4, -999.0
09-02-2022, 00:08:27,    232,    1.3,    7.3,   0.00,   0.00, 1020.2,   76.4, -999.0
09-02-2022, 00:08:37,    237,    1.8,    7.2,   0.00,   0.00, 1020.2,   76.4, -999.0
09-02-2022, 00:08:47,    239,    1.3,    7.2,   0.00,   0.00, 1020.2,   76.4, -999.0
09-02-2022, 00:08:57,    253,    0.6,    7.3,   0.00,   0.00, 1020.1,   76.4, -999.0
09-02-2022, 00:09:07,    194,    0.2,    7.3,   0.00,   0.00, 1020.1,   76.3, -999.0
09-02-2022, 00:09:17,    194,    0.0,    7.2,   0.00,   0.00, 1020.1,   76.1, -999.0
09-02-2022, 00:09:27,    260,    0.4,    7.2,   0.00,   0.00, 1020.2,   76.4, -999.0
09-02-2022, 00:09:37,    256,    0.5,    7.3,   0.00,   0.00, 1020.2,   76.5, -999.0
09-02-2022, 00:09:47,    211,    0.1,    7.3,   0.00,   0.00, 1020.1,   76.4, -999.0
09-02-2022, 00:09:57,    168,    0.9,    7.3,   0.00,   0.00, 1020.2,   76.5, -999.0
09-02-2022, 00:10:07,    167,    0.6,    7.3,   0.00,   0.00, 1020.1,   76.4, -999.0
09-02-2022, 00:10:17,    255,    0.1,    7.2,   0.00,   0.00, 1020.1,   76.2, -999.0
09-02-2022, 00:10:27,    225,    1.0,    7.3,   0.00,   0.00, 1020.2,   76.5, -999.0
09-02-2022, 00:10:36,    225,    2.0,    7.3,   0.00,   0.00, 1020.2,   76.5, -999.0
09-02-2022, 00:10:47,    239,    2.6,    7.3,   0.00,   0.00, 1020.2,   76.5, -999.0
09-02-2022, 00:10:57,    243,    2.8,    7.3,   0.00,   0.00, 1020.2,   76.5, -999.0
09-02-2022, 00:11:06,    241,    1.5,    7.3,   0.00,   0.00, 1020.2,   76.5, -999.0
09-02-2022, 00:11:16,    239,    0.0,    7.3,   0.00,   0.00, 1020.0,   76.2, -999.0
09-02-2022, 00:11:26,    230,    0.5,    7.3,   0.00,   0.00, 1020.1,   76.5, -999.0
09-02-2022, 00:11:36,    214,    0.4,    7.3,   0.00,   0.00, 1020.2,   76.6, -999.0
09-02-2022, 00:11:46,    208,    0.2,    7.3,   0.00,   0.00, 1020.1,   76.4, -999.0
09-02-2022, 00:11:56,    205,    0.2,    7.2,   0.00,   0.00, 1020.1,   76.4, -999.0
09-02-2022, 00:12:06,    205,    0.0,    7.2,   0.00,   0.00, 1020.0,   76.2, -999.0
09-02-2022, 00:12:16,    205,    0.0,    7.3,   0.00,   0.00, 1020.0,   76.1, -999.0
09-02-2022, 00:12:26,    223,    1.6,    7.3,   0.00,   0.00, 1020.1,   76.4, -999.0
09-02-2022, 00:12:36,    244,    3.0,    7.3,   0.00,   0.00, 1020.1,   76.5, -999.0
09-02-2022, 00:12:46,    202,    0.5,    7.3,   0.00,   0.00, 1020.1,   76.6, -999.0
09-02-2022, 00:12:56,    214,    0.6,    7.3,   0.00,   0.00, 1020.1,   76.6, -999.0
09-02-2022, 00:13:06,    259,    2.1,    7.3,   0.00,   0.00, 1020.1,   76.7, -999.0
09-02-2022, 00:13:16,    276,    1.2,    7.3,   0.00,   0.00, 1020.1,   76.6, -999.0
09-02-2022, 00:13:26,    204,    0.4,    7.3,   0.00,   0.00, 1020.1,   76.6, -999.0
09-02-2022, 00:13:36,    196,    0.3,    7.2,   0.00,   0.00, 1020.1,   76.5, -999.0
09-02-2022, 00:13:45,    199,    0.5,    7.3,   0.00,   0.00, 1020.1,   76.6, -999.0
09-02-2022, 00:13:56,    198,    0.0,    7.2,   0.00,   0.00, 1020.0,   76.4, -999.0
09-02-2022, 00:14:06,    226,    0.4,    7.3,   0.00,   0.00, 1020.1,   76.6, -999.0
09-02-2022, 00:14:15,    251,    0.3,    7.2,   0.00,   0.00, 1020.1,   76.5, -999.0
09-02-2022, 00:14:35,    251,    0.2,    7.3,   0.00,   0.00, 1020.1,   76.7, -999.0
09-02-2022, 00:14:45,    248,    0.2,    7.3,   0.00,   0.00, 1020.1,   76.6, -999.0
09-02-2022, 00:14:55,    248,    0.0,    7.3,   0.00,   0.00, 1020.0,   76.4, -999.0
09-02-2022, 00:15:05,    248,    0.0,    7.2,   0.00,   0.00, 1020.0,   76.3, -999.0
09-02-2022, 00:15:15,    247,    0.2,    7.2,   0.00,   0.00, 1020.0,   76.6, -999.0
09-02-2022, 00:15:25,    159,    0.0,    7.2,   0.00,   0.00, 1020.0,   76.5, -999.0
09-02-2022, 00:15:35,    217,    0.2,    7.1,   0.00,   0.00, 1020.1,   76.6, -999.0
09-02-2022, 00:15:45,    231,    1.2,    7.3,   0.00,   0.00, 1020.1,   76.8, -999.0
09-02-2022, 00:15:55,    185,    0.1,    7.2,   0.00,   0.00, 1020.1,   76.6, -999.0
09-02-2022, 00:16:05,    185,    0.1,    7.2,   0.00,   0.00, 1020.0,   76.5, -999.0
09-02-2022, 00:16:15,    193,    0.0,    7.2,   0.00,   0.00, 1020.0,   76.4, -999.0
09-02-2022, 00:16:25,    193,    0.0,    7.2,   0.00,   0.00, 1020.0,   76.5, -999.0
09-02-2022, 00:16:35,    268,    0.0,    7.2,   0.00,   0.00, 1020.1,   76.5, -999.0
09-02-2022, 00:16:45,    214,    0.8,    7.2,   0.00,   0.00, 1020.1,   76.8, -999.0
09-02-2022, 00:16:54,    242,    2.6,    7.3,   0.00,   0.00, 1020.2,   76.9, -999.0
09-02-2022, 00:17:05,    244,    2.0,    7.3,   0.00,   0.00, 1020.2,   76.8, -999.0
09-02-2022, 00:17:15,    192,    0.7,    7.2,   0.00,   0.00, 1020.1,   76.8, -999.0
09-02-2022, 00:17:24,    209,    0.3,    7.2,   0.00,   0.00, 1020.1,   76.8, -999.0
09-02-2022, 00:17:35,    209,    0.0,    7.2,   0.00,   0.00, 1020.0,   76.4, -999.0
09-02-2022, 00:17:45,    210,    0.2,    7.1,   0.00,   0.00, 1020.0,   76.7, -999.0
09-02-2022, 00:17:54,    210,    0.0,    7.2,   0.00,   0.00, 1020.0,   76.6, -999.0
09-02-2022, 00:18:04,    204,    0.3,    7.2,   0.00,   0.00, 1020.1,   76.7, -999.0
09-02-2022, 00:18:14,    206,    0.7,    7.3,   0.00,   0.00, 1020.1,   76.8, -999.0
09-02-2022, 00:18:24,    207,    0.7,    7.3,   0.00,   0.00, 1020.1,   76.9, -999.0
09-02-2022, 00:18:34,    244,    0.8,    7.2,   0.00,   0.00, 1020.1,   76.9, -999.0
09-02-2022, 00:18:44,    243,    0.6,    7.2,   0.00,   0.00, 1020.1,   76.8, -999.0
09-02-2022, 00:18:54,    249,    0.7,    7.2,   0.00,   0.00, 1020.1,   76.9, -999.0
09-02-2022, 00:19:04,    263,    0.8,    7.3,   0.00,   0.00, 1020.1,   76.9, -999.0
09-02-2022, 00:19:14,    254,    0.1,    7.3,   0.00,   0.00, 1020.0,   76.7, -999.0
09-02-2022, 00:19:24,    148,    0.0,    7.2,   0.00,   0.00, 1020.0,   76.6, -999.0
09-02-2022, 00:19:34,    191,    0.4,    7.2,   0.00,   0.00, 1020.0,   76.8, -999.0
09-02-2022, 00:19:44,    190,    0.4,    7.2,   0.00,   0.00, 1020.1,   76.9, -999.0
09-02-2022, 00:19:54,    219,    0.1,    7.1,   0.00,   0.00, 1020.0,   76.7, -999.0
09-02-2022, 00:20:04,    222,    0.9,    7.2,   0.00,   0.00, 1020.1,   77.0, -999.0
09-02-2022, 00:20:14,    233,    0.5,    7.2,   0.00,   0.00, 1020.1,   76.9, -999.0
09-02-2022, 00:20:24,    222,    0.5,    7.3,   0.00,   0.00, 1020.1,   76.8, -999.0
09-02-2022, 00:20:33,    254,    0.8,    7.2,   0.00,   0.00, 1020.1,   77.0, -999.0
09-02-2022, 00:20:44,    231,    1.2,    7.3,   0.00,   0.00, 1020.1,   77.0, -999.0
09-02-2022, 00:20:54,    197,    1.3,    7.3,   0.00,   0.00, 1020.1,   77.0, -999.0
09-02-2022, 00:21:03,    209,    0.7,    7.3,   0.00,   0.00, 1020.1,   77.1, -999.0
09-02-2022, 00:21:13,    214,    0.5,    7.2,   0.00,   0.00, 1020.1,   77.0, -999.0
09-02-2022, 00:21:23,    214,    1.2,    7.2,   0.00,   0.00, 1020.1,   77.0, -999.0
09-02-2022, 00:21:33,    210,    0.8,    7.2,   0.00,   0.00, 1020.1,   77.1, -999.0
09-02-2022, 00:21:43,    191,    0.8,    7.1,   0.00,   0.00, 1020.1,   77.2, -999.0
09-02-2022, 00:21:53,    275,    0.8,    7.2,   0.00,   0.00, 1020.1,   77.1, -999.0
09-02-2022, 00:22:03,    275,    0.3,    7.3,   0.00,   0.00, 1020.1,   77.0, -999.0
09-02-2022, 00:22:13,    235,    0.2,    7.2,   0.00,   0.00, 1020.1,   77.1, -999.0
09-02-2022, 00:22:23,    216,    0.0,    7.2,   0.00,   0.00, 1020.0,   76.8, -999.0
09-02-2022, 00:22:33,    204,    0.9,    7.2,   0.00,   0.00, 1020.1,   77.1, -999.0
09-02-2022, 00:22:43,    203,    0.1,    7.3,   0.00,   0.00, 1020.1,   77.0, -999.0
09-02-2022, 00:22:53,    234,    0.5,    7.2,   0.00,   0.00, 1020.1,   77.0, -999.0
09-02-2022, 00:23:03,    168,    0.5,    7.3,   0.00,   0.00, 1020.1,   77.1, -999.0
09-02-2022, 00:23:15,    200,    1.4,    7.3,   0.00,   0.00, 1020.1,   77.1, -999.0
09-02-2022, 00:23:23,    225,    2.9,    7.3,   0.00,   0.00, 1020.1,   77.1, -999.0
09-02-2022, 00:23:33,    231,    0.7,    7.3,   0.00,   0.00, 1020.1,   77.1, -999.0
09-02-2022, 00:23:43,    240,    0.0,    7.2,   0.00,   0.00, 1020.0,   76.8, -999.0
09-02-2022, 00:23:53,    249,    0.9,    7.3,   0.00,   0.00, 1020.1,   77.1, -999.0
09-02-2022, 00:24:02,    248,    0.0,    7.2,   0.00,   0.00, 1020.0,   76.8, -999.0
09-02-2022, 00:24:12,    217,    1.3,    7.2,   0.00,   0.00, 1020.1,   77.1, -999.0
09-02-2022, 00:24:23,    205,    2.3,    7.2,   0.00,   0.00, 1020.1,   77.2, -999.0
09-02-2022, 00:24:32,    220,    0.4,    7.3,   0.00,   0.00, 1020.1,   77.2, -999.0
09-02-2022, 00:24:42,    221,    0.2,    7.2,   0.00,   0.00, 1020.1,   77.2, -999.0
09-02-2022, 00:24:52,    190,    0.2,    7.3,   0.00,   0.00, 1020.1,   77.0, -999.0
09-02-2022, 00:25:02,    197,    0.5,    7.3,   0.00,   0.00, 1020.1,   77.3, -999.0
09-02-2022, 00:25:12,    197,    0.4,    7.2,   0.00,   0.00, 1020.1,   77.2, -999.0
09-02-2022, 00:25:22,    198,    0.0,    7.2,   0.00,   0.00, 1020.0,   76.9, -999.0
09-02-2022, 00:25:32,    250,    0.3,    7.2,   0.00,   0.00, 1020.0,   77.0, -999.0
09-02-2022, 00:25:42,    240,    0.0,    7.0,   0.00,   0.00, 1020.0,   76.8, -999.0
09-02-2022, 00:25:52,    193,    0.3,    7.2,   0.00,   0.00, 1020.1,   77.1, -999.0
09-02-2022, 00:26:02,    201,    0.0,    7.2,   0.00,   0.00, 1020.0,   77.0, -999.0
09-02-2022, 00:26:12,    197,    0.6,    7.1,   0.00,   0.00, 1020.0,   77.1, -999.0
09-02-2022, 00:26:22,    213,    0.6,    7.3,   0.00,   0.00, 1020.1,   77.2, -999.0
09-02-2022, 00:26:32,    191,    0.7,    7.3,   0.00,   0.00, 1020.0,   77.3, -999.0
09-02-2022, 00:26:42,    179,    1.5,    7.3,   0.00,   0.00, 1020.1,   77.3, -999.0
09-02-2022, 00:26:52,    283,    0.6,    7.2,   0.00,   0.00, 1020.0,   77.2, -999.0
09-02-2022, 00:27:02,    180,    1.0,    7.3,   0.00,   0.00, 1020.1,   77.4, -999.0
09-02-2022, 00:27:11,    209,    1.8,    7.3,   0.00,   0.00, 1020.1,   77.5, -999.0
09-02-2022, 00:27:21,    251,    0.7,    7.2,   0.00,   0.00, 1020.0,   77.5, -999.0
09-02-2022, 00:27:32,    213,    1.0,    7.3,   0.00,   0.00, 1020.1,   77.4, -999.0
09-02-2022, 00:27:41,    208,    1.0,    7.2,   0.00,   0.00, 1020.0,   77.4, -999.0
09-02-2022, 00:27:51,    199,    0.6,    7.3,   0.00,   0.00, 1020.0,   77.4, -999.0
09-02-2022, 00:28:02,    197,    1.4,    7.3,   0.00,   0.00, 1020.1,   77.4, -999.0
09-02-2022, 00:28:11,    232,    1.3,    7.3,   0.00,   0.00, 1020.0,   77.4, -999.0
09-02-2022, 00:28:21,    200,    0.1,    7.3,   0.00,   0.00, 1020.0,   77.2, -999.0
09-02-2022, 00:28:31,    202,    0.1,    7.2,   0.00,   0.00, 1020.0,   77.1, -999.0
09-02-2022, 00:28:41,    195,    0.8,    7.3,   0.00,   0.00, 1020.1,   77.4, -999.0
09-02-2022, 00:28:51,    194,    0.2,    7.3,   0.00,   0.00, 1020.0,   77.3, -999.0
09-02-2022, 00:29:01,    194,    0.0,    7.3,   0.00,   0.00, 1020.0,   77.2, -999.0
09-02-2022, 00:29:11,    197,    0.2,    7.3,   0.00,   0.00, 1020.0,   77.5, -999.0
09-02-2022, 00:29:21,    235,    1.4,    7.3,   0.00,   0.00, 1020.1,   77.5, -999.0
09-02-2022, 00:29:31,    209,    0.8,    7.2,   0.00,   0.00, 1020.0,   77.4, -999.0
09-02-2022, 00:29:41,    198,    2.8,    7.3,   0.00,   0.00, 1020.1,   77.6, -999.0
09-02-2022, 00:29:51,    215,    1.2,    7.3,   0.00,   0.00, 1020.1,   77.5, -999.0
09-02-2022, 00:30:01,    220,    2.5,    7.3,   0.00,   0.00, 1020.1,   77.5, -999.0
09-02-2022, 00:30:11,    178,    3.3,    7.3,   0.00,   0.00, 1020.1,   77.6, -999.0
09-02-2022, 00:30:20,    224,    2.0,    7.3,   0.00,   0.00, 1020.1,   77.6, -999.0
09-02-2022, 00:30:31,    200,    0.5,    7.2,   0.00,   0.00, 1020.1,   77.5, -999.0
09-02-2022, 00:30:41,    247,    1.8,    7.3,   0.00,   0.00, 1020.1,   77.6, -999.0
09-02-2022, 00:30:50,    244,    0.0,    7.2,   0.00,   0.00, 1020.0,   77.4, -999.0
09-02-2022, 00:31:00,    227,    1.5,    7.3,   0.00,   0.00, 1020.1,   77.8, -999.0
09-02-2022, 00:31:11,    245,    1.5,    7.3,   0.00,   0.00, 1020.1,   77.8, -999.0
09-02-2022, 00:31:20,    194,    0.9,    7.3,   0.00,   0.00, 1020.1,   77.7, -999.0
09-02-2022, 00:31:30,    247,    1.6,    7.3,   0.00,   0.00, 1020.1,   77.8, -999.0
09-02-2022, 00:31:40,    236,    2.0,    7.3,   0.00,   0.00, 1020.1,   77.7, -999.0
09-02-2022, 00:31:50,    181,    1.8,    7.3,   0.00,   0.00, 1020.0,   77.7, -999.0
09-02-2022, 00:32:00,    216,    0.3,    7.2,   0.00,   0.00, 1020.0,   77.5, -999.0
09-02-2022, 00:32:10,    204,    3.2,    7.3,   0.00,   0.00, 1020.1,   77.8, -999.0
09-02-2022, 00:32:20,    238,    2.5,    7.3,   0.00,   0.00, 1020.0,   77.8, -999.0
09-02-2022, 00:32:30,    228,    1.1,    7.3,   0.00,   0.00, 1020.1,   77.9, -999.0
09-02-2022, 00:32:40,    228,    0.2,    7.1,   0.00,   0.00, 1020.0,   77.6, -999.0
09-02-2022, 00:32:50,    196,    1.6,    7.2,   0.00,   0.00, 1020.1,   77.8, -999.0
09-02-2022, 00:33:00,    217,    0.6,    7.2,   0.00,   0.00, 1020.0,   77.7, -999.0
09-02-2022, 00:33:10,    238,    1.5,    7.3,   0.00,   0.00, 1020.1,   77.9, -999.0
09-02-2022, 00:33:20,    188,    1.4,    7.2,   0.00,   0.00, 1020.1,   77.8, -999.0
09-02-2022, 00:33:29,    223,    2.9,    7.2,   0.00,   0.00, 1020.0,   77.9, -999.0
09-02-2022, 00:33:40,    259,    0.9,    7.3,   0.00,   0.00, 1020.0,   77.9, -999.0
09-02-2022, 00:33:50,    214,    1.5,    7.3,   0.00,   0.00, 1020.1,   77.8, -999.0
09-02-2022, 00:33:59,    222,    2.1,    7.3,   0.00,   0.00, 1020.1,   78.0, -999.0
09-02-2022, 00:34:09,    214,    1.7,    7.3,   0.00,   0.00, 1020.1,   77.9, -999.0
09-02-2022, 00:34:20,    209,    1.6,    7.3,   0.00,   0.00, 1020.1,   77.9, -999.0
09-02-2022, 00:34:29,    204,    1.1,    7.3,   0.00,   0.00, 1020.1,   77.9, -999.0
09-02-2022, 00:34:39,    221,    1.2,    7.2,   0.00,   0.00, 1020.1,   78.0, -999.0
09-02-2022, 00:34:49,    262,    1.2,    7.3,   0.00,   0.00, 1020.1,   78.1, -999.0
09-02-2022, 00:34:59,    247,    3.0,    7.3,   0.00,   0.00, 1020.1,   77.9, -999.0
09-02-2022, 00:35:09,    244,    3.3,    7.3,   0.00,   0.00, 1020.1,   78.0, -999.0
09-02-2022, 00:35:19,    200,    2.3,    7.2,   0.00,   0.00, 1020.1,   78.0, -999.0
09-02-2022, 00:35:29,    150,    1.1,    7.3,   0.00,   0.00, 1020.0,   78.0, -999.0
09-02-2022, 00:35:39,    175,    0.9,    7.3,   0.00,   0.00, 1020.1,   78.1, -999.0
09-02-2022, 00:35:49,    255,    3.4,    7.3,   0.00,   0.00, 1020.1,   78.0, -999.0
09-02-2022, 00:35:59,    229,    3.4,    7.3,   0.00,   0.00, 1020.1,   78.1, -999.0
09-02-2022, 00:36:09,    223,    1.2,    7.3,   0.00,   0.00, 1020.0,   78.1, -999.0
09-02-2022, 00:36:19,    224,    0.7,    7.2,   0.00,   0.00, 1020.0,   78.0, -999.0
09-02-2022, 00:36:29,    234,    0.2,    7.2,   0.00,   0.00, 1020.0,   77.8, -999.0
09-02-2022, 00:36:39,    249,    1.4,    7.3,   0.00,   0.00, 1020.0,   78.0, -999.0
09-02-2022, 00:36:49,    239,    0.6,    7.3,   0.00,   0.00, 1020.0,   78.2, -999.0
09-02-2022, 00:36:59,    184,    0.1,    7.2,   0.00,   0.00, 1020.0,   77.7, -999.0
09-02-2022, 00:37:08,    178,    0.8,    7.3,   0.00,   0.00, 1020.1,   78.1, -999.0
09-02-2022, 00:37:18,    176,    0.4,    7.3,   0.00,   0.00, 1020.0,   78.1, -999.0
09-02-2022, 00:37:29,    182,    0.5,    7.2,   0.00,   0.00, 1020.0,   78.0, -999.0
09-02-2022, 00:37:38,    216,    0.7,    7.3,   0.00,   0.00, 1020.0,   78.2, -999.0
09-02-2022, 00:37:48,    234,    1.3,    7.3,   0.00,   0.00, 1020.0,   78.2, -999.0
09-02-2022, 00:37:58,    207,    3.2,    7.3,   0.00,   0.00, 1020.0,   78.2, -999.0
09-02-2022, 00:38:08,    195,    2.1,    7.3,   0.00,   0.00, 1020.0,   78.2, -999.0
09-02-2022, 00:38:18,    211,    3.0,    7.2,   0.00,   0.00, 1020.0,   78.2, -999.0
09-02-2022, 00:38:28,    222,    4.0,    7.3,   0.00,   0.00, 1020.0,   78.1, -999.0
09-02-2022, 00:38:38,    224,    2.8,    7.2,   0.00,   0.00, 1020.0,   78.2, -999.0
09-02-2022, 00:38:48,    236,    1.2,    7.3,   0.00,   0.00, 1020.0,   78.3, -999.0
09-02-2022, 00:38:58,    232,    0.0,    7.2,   0.00,   0.00, 1019.8,   77.9, -999.0
09-02-2022, 00:39:08,    227,    0.1,    7.2,   0.00,   0.00, 1019.9,   78.0, -999.0
09-02-2022, 00:39:18,    241,    1.0,    7.3,   0.00,   0.00, 1020.0,   78.3, -999.0
09-02-2022, 00:39:28,    245,    1.9,    7.3,   0.00,   0.00, 1020.0,   78.3, -999.0
09-02-2022, 00:39:38,    264,    4.4,    7.3,   0.00,   0.00, 1020.0,   78.3, -999.0
09-02-2022, 00:39:48,    227,    1.7,    7.3,   0.00,   0.00, 1020.0,   78.4, -999.0
09-02-2022, 00:39:58,    199,    0.9,    7.3,   0.00,   0.00, 1020.0,   78.3, -999.0
09-02-2022, 00:40:08,    258,    0.4,    7.2,   0.00,   0.00, 1020.0,   78.4, -999.0
09-02-2022, 00:40:17,    221,    0.0,    7.2,   0.00,   0.00, 1019.9,   78.1, -999.0
09-02-2022, 00:40:28,    224,    0.0,    7.2,   0.00,   0.00, 1019.9,   78.1, -999.0
09-02-2022, 00:40:38,    214,    0.7,    7.2,   0.00,   0.00, 1019.9,   78.3, -999.0
09-02-2022, 00:40:47,    245,    1.6,    7.2,   0.00,   0.00, 1020.0,   78.4, -999.0
09-02-2022, 00:40:57,    209,    0.8,    7.3,   0.00,   0.00, 1019.9,   78.3, -999.0
09-02-2022, 00:41:08,    209,    0.2,    7.2,   0.00,   0.00, 1019.9,   78.2, -999.0
09-02-2022, 00:41:17,    208,    0.4,    7.2,   0.00,   0.00, 1019.9,   78.2, -999.0
09-02-2022, 00:41:27,    207,    0.8,    7.2,   0.00,   0.00, 1020.0,   78.4, -999.0
09-02-2022, 00:41:37,    217,    0.7,    7.2,   0.00,   0.00, 1020.0,   78.5, -999.0
09-02-2022, 00:41:47,    201,    1.3,    7.2,   0.00,   0.00, 1020.0,   78.6, -999.0
09-02-2022, 00:41:57,    186,    2.3,    7.2,   0.00,   0.00, 1019.9,   78.6, -999.0
09-02-2022, 00:42:07,    235,    3.0,    7.2,   0.00,   0.00, 1020.0,   78.5, -999.0
09-02-2022, 00:42:17,    223,    0.7,    7.2,   0.00,   0.00, 1020.0,   78.6, -999.0
09-02-2022, 00:42:27,    232,    2.4,    7.3,   0.00,   0.00, 1020.0,   78.5, -999.0
09-02-2022, 00:42:37,    200,    1.7,    7.3,   0.00,   0.00, 1019.9,   78.6, -999.0
09-02-2022, 00:42:47,    197,    0.2,    7.2,   0.00,   0.00, 1019.9,   78.4, -999.0
09-02-2022, 00:42:57,    250,    0.5,    7.2,   0.00,   0.00, 1019.9,   78.6, -999.0
09-02-2022, 00:43:07,    252,    0.7,    7.2,   0.00,   0.00, 1019.9,   78.7, -999.0
09-02-2022, 00:43:17,    250,    0.1,    7.2,   0.00,   0.00, 1019.8,   78.4, -999.0
09-02-2022, 00:43:26,    248,    0.0,    7.2,   0.00,   0.00, 1019.8,   78.4, -999.0
09-02-2022, 00:43:37,    188,    0.5,    7.3,   0.00,   0.00, 1019.9,   78.5, -999.0
09-02-2022, 00:43:47,    180,    0.5,    7.2,   0.00,   0.00, 1019.9,   78.5, -999.0
09-02-2022, 00:43:56,    191,    0.2,    7.2,   0.00,   0.00, 1019.8,   78.6, -999.0
09-02-2022, 00:44:06,    182,    0.3,    7.3,   0.00,   0.00, 1019.9,   78.5, -999.0
09-02-2022, 00:44:17,    184,    2.1,    7.3,   0.00,   0.00, 1020.0,   78.7, -999.0
09-02-2022, 00:44:26,    225,    0.6,    7.2,   0.00,   0.00, 1019.8,   78.6, -999.0
09-02-2022, 00:44:36,    209,    2.9,    7.2,   0.00,   0.00, 1019.9,   78.8, -999.0
09-02-2022, 00:44:46,    185,    4.4,    7.2,   0.00,   0.00, 1019.9,   78.8, -999.0
09-02-2022, 00:44:56,    203,    1.6,    7.2,   0.00,   0.00, 1019.9,   78.9, -999.0
09-02-2022, 00:45:06,    228,    4.3,    7.3,   0.00,   0.00, 1020.0,   78.8, -999.0
09-02-2022, 00:45:16,    230,    2.7,    7.3,   0.00,   0.00, 1019.9,   79.0, -999.0
09-02-2022, 00:45:26,    245,    3.7,    7.2,   0.00,   0.00, 1019.9,   78.9, -999.0
09-02-2022, 00:45:36,    216,    1.3,    7.2,   0.00,   0.00, 1019.9,   79.0, -999.0
09-02-2022, 00:45:46,    199,    0.8,    7.3,   0.00,   0.00, 1019.9,   78.9, -999.0
09-02-2022, 00:45:56,    280,    1.5,    7.3,   0.00,   0.00, 1019.9,   79.0, -999.0
09-02-2022, 00:46:06,    198,    0.6,    7.2,   0.00,   0.00, 1019.9,   79.0, -999.0
09-02-2022, 00:46:16,    242,    0.7,    7.1,   0.00,   0.00, 1019.8,   78.9, -999.0
09-02-2022, 00:46:26,    271,    3.6,    7.2,   0.00,   0.00, 1019.9,   79.0, -999.0
09-02-2022, 00:46:35,    217,    0.5,    7.2,   0.00,   0.00, 1019.9,   78.9, -999.0
09-02-2022, 00:46:46,    180,    0.4,    7.2,   0.00,   0.00, 1019.9,   78.8, -999.0
09-02-2022, 00:46:56,    248,    0.9,    7.2,   0.00,   0.00, 1019.9,   79.2, -999.0